Location: Eexterzandvoort
(53.0303°N, 6.7884°E)
Time: 00:03:48
(UTC+00:00)

USA 234 - Pass Details

Date: 19 May 2025
Orbit: 1097 x 1111 km, 123.0° (Epoch: 13 June)

Event Time Altitude Azimuth Distance (km) Brightness Sun altitude
Rises 22:30:37 0° 68° (ENE) 3,921 6.3 -15.9°
Reaches altitude 10° 22:33:05 10° 67° (ENE) 2,964 5.6 -16.0°
Maximum altitude 22:39:37 76° 343° (NNW) 1,142 3.5 -16.2°
Drops below altitude 10° 22:46:10 10° 260° (W) 2,968 5.5 -16.4°
Sets 22:48:39 0° 259° (WSW) 3,927 6.2 -16.5°
